Time,TemperatureF,DewpointF,PressureIn,WindDirection,WindDirectionDegrees,WindSpeedMPH,WindSpeedGustMPH,Humidity,HourlyPrecipIn,Conditions,Clouds,dailyrainin,SoftwareType,DateUTC
2014-01-12 00:00:00,51.1,12.6,30.00,East,83,1.0,3.1,21,0.00,,,-99.99,FreeWX-Wi 1.02,2014-01-12 08:00:00,
2014-01-12 00:05:00,51.3,12.7,30.00,East,80,1.0,3.6,21,0.00,,,-99.99,FreeWX-Wi 1.02,2014-01-12 08:05:00,
2014-01-12 00:10:00,51.3,12.7,30.00,ENE,76,2.0,5.4,21,0.00,,,-99.99,FreeWX-Wi 1.02,2014-01-12 08:10:00,
2014-01-12 00:15:00,51.3,12.7,30.00,ENE,68,2.0,3.6,21,0.00,,,-99.99,FreeWX-Wi 1.02,2014-01-12 08:15:00,
2014-01-12 00:20:00,51.1,12.6,29.97,ENE,65,2.0,3.1,21,0.00,,,-99.99,FreeWX-Wi 1.02,2014-01-12 08:20:00,
2014-01-12 00:25:00,51.3,12.7,29.97,ENE,62,2.0,2.2,21,0.00,,,-99.99,FreeWX-Wi 1.02,2014-01-12 08:25:00,
2014-01-12 00:30:00,51.4,12.7,29.97,ENE,60,1.0,3.6,21,0.00,,,-99.99,FreeWX-Wi 1.02,2014-01-12 08:30:00,
2014-01-12 00:35:00,51.8,13.1,29.97,NE,56,1.0,4.0,21,0.00,,,-99.99,FreeWX-Wi 1.02,2014-01-12 08:35:00,
2014-01-12 00:40:00,51.8,13.1,29.97,NE,55,1.0,0.0,21,0.00,,,-99.99,FreeWX-Wi 1.02,2014-01-12 08:40:00,
2014-01-12 00:45:00,51.6,12.9,29.97,NE,55,1.0,4.0,21,0.00,,,-99.99,FreeWX-Wi 1.02,2014-01-12 08:45:00,
2014-01-12 00:50:00,51.8,13.1,29.97,NE,54,1.0,4.9,21,0.00,,,-99.99,FreeWX-Wi 1.02,2014-01-12 08:50:00,
2014-01-12 00:55:00,51.8,13.1,29.97,NE,53,1.0,4.0,21,0.00,,,-99.99,FreeWX-Wi 1.02,2014-01-12 08:55:00,
2014-01-12 01:00:00,51.6,12.9,29.97,NE,52,1.0,2.2,21,0.00,,,-99.99,FreeWX-Wi 1.02,2014-01-12 09:00:00,
2014-01-12 01:05:00,51.1,12.6,29.97,NE,52,1.0,0.0,21,0.00,,,-99.99,FreeWX-Wi 1.02,2014-01-12 09:05:00,
2014-01-12 01:10:00,50.7,12.2,29.97,NE,52,1.0,0.0,21,0.00,,,-99.99,FreeWX-Wi 1.02,2014-01-12 09:10:00,
2014-01-12 01:15:00,50.4,11.8,29.97,North,-999,0.0,3.6,21,0.00,,,-99.99,FreeWX-Wi 1.02,2014-01-12 09:15:00,
2014-01-12 01:20:00,50.4,11.8,29.97,North,-999,0.0,3.6,21,0.00,,,-99.99,FreeWX-Wi 1.02,2014-01-12 09:20:00,
2014-01-12 01:25:00,50.4,11.8,29.97,NE,52,1.0,3.1,21,0.00,,,-99.99,FreeWX-Wi 1.02,2014-01-12 09:25:00,
2014-01-12 01:30:00,50.5,12.0,29.97,NE,52,1.0,3.1,21,0.00,,,-99.99,FreeWX-Wi 1.02,2014-01-12 09:30:00,
2014-01-12 01:35:00,50.9,12.4,29.97,NE,52,1.0,0.0,21,0.00,,,-99.99,FreeWX-Wi 1.02,2014-01-12 09:35:00,
2014-01-12 01:40:00,50.9,12.4,29.97,NE,52,1.0,0.0,21,0.00,,,-99.99,FreeWX-Wi 1.02,2014-01-12 09:40:00,
2014-01-12 01:45:00,51.1,12.6,29.97,NE,52,1.0,4.5,21,0.00,,,-99.99,FreeWX-Wi 1.02,2014-01-12 09:45:00,
2014-01-12 01:50:00,50.9,12.4,29.97,NE,52,1.0,2.7,21,0.00,,,-99.99,FreeWX-Wi 1.02,2014-01-12 09:50:00,
2014-01-12 01:55:00,50.7,12.2,29.97,NE,52,1.0,3.6,21,0.00,,,-99.99,FreeWX-Wi 1.02,2014-01-12 09:55:00,
2014-01-12 02:00:00,51.3,12.7,29.97,NE,51,1.0,4.0,21,0.00,,,-99.99,FreeWX-Wi 1.02,2014-01-12 10:00:00,
2014-01-12 02:05:00,51.3,12.7,29.97,NE,50,1.0,3.6,21,0.00,,,-99.99,FreeWX-Wi 1.02,2014-01-12 10:05:00,
2014-01-12 02:15:00,51.6,12.9,29.97,NE,53,2.0,4.9,21,0.00,,,-99.99,FreeWX-Wi 1.02,2014-01-12 10:15:00,
2014-01-12 02:20:00,51.6,12.9,29.97,ENE,57,2.0,3.1,21,0.00,,,-99.99,FreeWX-Wi 1.02,2014-01-12 10:20:00,
2014-01-12 02:25:00,51.4,12.7,29.97,ENE,62,2.0,4.0,21,0.00,,,-99.99,FreeWX-Wi 1.02,2014-01-12 10:25:00,
2014-01-12 02:30:00,51.8,13.1,29.97,ENE,67,2.0,3.6,21,0.00,,,-99.99,FreeWX-Wi 1.02,2014-01-12 10:30:00,
2014-01-12 02:35:00,51.6,12.9,29.94,ENE,72,2.0,4.0,21,0.00,,,-99.99,FreeWX-Wi 1.02,2014-01-12 10:35:00,
2014-01-12 02:40:00,52.2,13.5,29.94,ENE,77,2.0,4.0,21,0.00,,,-99.99,FreeWX-Wi 1.02,2014-01-12 10:40:00,
2014-01-12 02:45:00,52.9,14.0,29.94,ENE,73,2.0,4.9,21,0.00,,,-99.99,FreeWX-Wi 1.02,2014-01-12 10:45:00,
2014-01-12 02:50:00,53.1,14.2,29.94,ENE,65,2.0,4.0,21,0.00,,,-99.99,FreeWX-Wi 1.02,2014-01-12 10:50:00,
2014-01-12 02:55:00,53.2,14.4,29.94,ENE,59,2.0,5.8,21,0.00,,,-99.99,FreeWX-Wi 1.02,2014-01-12 10:55:00,
2014-01-12 03:00:00,53.4,14.5,29.94,NE,56,2.0,3.1,21,0.00,,,-99.99,FreeWX-Wi 1.02,2014-01-12 11:00:00,
2014-01-12 03:05:00,54.1,14.0,29.94,NE,54,2.0,5.4,20,0.00,,,-99.99,FreeWX-Wi 1.02,2014-01-12 11:05:00,
2014-01-12 03:10:00,55.9,15.4,29.94,NE,46,2.0,3.6,20,0.00,,,-99.99,FreeWX-Wi 1.02,2014-01-12 11:10:00,
2014-01-12 03:15:00,55.4,15.1,29.94,NE,47,2.0,4.0,20,0.00,,,-99.99,FreeWX-Wi 1.02,2014-01-12 11:15:00,
2014-01-12 03:20:00,55.0,14.7,29.94,NE,49,2.0,5.8,20,0.00,,,-99.99,FreeWX-Wi 1.02,2014-01-12 11:20:00,
2014-01-12 03:25:00,55.4,15.1,29.94,NE,46,1.0,3.1,20,0.00,,,-99.99,FreeWX-Wi 1.02,2014-01-12 11:25:00,
2014-01-12 03:30:00,55.6,15.1,29.94,NE,42,1.0,3.1,20,0.00,,,-99.99,FreeWX-Wi 1.02,2014-01-12 11:30:00,
2014-01-12 03:35:00,55.2,14.9,29.94,NE,40,1.0,4.9,20,0.00,,,-99.99,FreeWX-Wi 1.02,2014-01-12 11:35:00,
2014-01-12 03:40:00,55.6,15.1,29.94,NE,47,2.0,4.0,20,0.00,,,-99.99,FreeWX-Wi 1.02,2014-01-12 11:40:00,
2014-01-12 03:45:00,56.3,15.8,29.94,NE,50,2.0,5.4,20,0.00,,,-99.99,FreeWX-Wi 1.02,2014-01-12 11:45:00,
2014-01-12 03:50:00,56.1,15.6,29.94,NE,54,1.0,3.1,20,0.00,,,-99.99,FreeWX-Wi 1.02,2014-01-12 11:50:00,
2014-01-12 03:55:00,55.8,15.3,29.94,ENE,59,1.0,4.5,20,0.00,,,-99.99,FreeWX-Wi 1.02,2014-01-12 11:55:00,
2014-01-12 04:00:00,55.8,15.3,29.94,ENE,59,2.0,8.1,20,0.00,,,-99.99,FreeWX-Wi 1.02,2014-01-12 12:00:00,
2014-01-12 04:05:00,55.9,15.4,29.94,NE,43,2.0,4.0,20,0.00,,,-99.99,FreeWX-Wi 1.02,2014-01-12 12:05:00,
2014-01-12 04:10:00,55.6,15.1,29.94,North,11,2.0,5.8,20,0.00,,,-99.99,FreeWX-Wi 1.02,2014-01-12 12:10:00,
2014-01-12 04:15:00,54.5,14.2,29.94,NW,314,2.0,5.8,20,0.00,,,-99.99,FreeWX-Wi 1.02,2014-01-12 12:15:00,
2014-01-12 04:20:00,53.6,13.5,29.94,West,281,2.0,4.0,20,0.00,,,-99.99,FreeWX-Wi 1.02,2014-01-12 12:20:00,
2014-01-12 04:25:00,52.7,13.8,29.94,West,269,3.0,4.0,21,0.00,,,-99.99,FreeWX-Wi 1.02,2014-01-12 12:25:00,
2014-01-12 04:30:00,52.2,13.5,29.94,WSW,257,2.0,5.8,21,0.00,,,-99.99,FreeWX-Wi 1.02,2014-01-12 12:30:00,
2014-01-12 04:35:00,52.5,13.8,29.97,SW,229,2.0,3.1,21,0.00,,,-99.99,FreeWX-Wi 1.02,2014-01-12 12:35:00,
2014-01-12 04:40:00,52.2,13.5,29.97,South,179,2.0,2.7,21,0.00,,,-99.99,FreeWX-Wi 1.02,2014-01-12 12:40:00,
2014-01-12 04:45:00,51.6,12.9,29.97,SE,143,1.0,4.9,21,0.00,,,-99.99,FreeWX-Wi 1.02,2014-01-12 12:45:00,
2014-01-12 04:50:00,51.3,12.7,29.94,ESE,123,2.0,4.0,21,0.00,,,-99.99,FreeWX-Wi 1.02,2014-01-12 12:50:00,
2014-01-12 04:55:00,50.2,11.8,29.94,ESE,111,2.0,4.9,21,0.00,,,-99.99,FreeWX-Wi 1.02,2014-01-12 12:55:00,
2014-01-12 05:00:00,50.2,11.8,29.94,ESE,106,1.0,4.0,21,0.00,,,-99.99,FreeWX-Wi 1.02,2014-01-12 13:00:00,
2014-01-12 05:05:00,49.8,11.5,29.94,East,100,1.0,0.0,21,0.00,,,-99.99,FreeWX-Wi 1.02,2014-01-12 13:05:00,
2014-01-12 05:10:00,49.6,11.3,29.94,East,95,2.0,3.6,21,0.00,,,-99.99,FreeWX-Wi 1.02,2014-01-12 13:10:00,
2014-01-12 05:15:00,48.9,10.8,29.94,East,89,2.0,5.8,21,0.00,,,-99.99,FreeWX-Wi 1.02,2014-01-12 13:15:00,
2014-01-12 05:20:00,48.9,10.8,29.94,East,86,2.0,5.4,21,0.00,,,-99.99,FreeWX-Wi 1.02,2014-01-12 13:20:00,
2014-01-12 05:25:00,49.1,10.9,29.94,East,86,2.0,3.1,21,0.00,,,-99.99,FreeWX-Wi 1.02,2014-01-12 13:25:00,
2014-01-12 05:30:00,49.1,10.9,29.94,East,86,2.0,3.1,21,0.00,,,-99.99,FreeWX-Wi 1.02,2014-01-12 13:30:00,
2014-01-12 05:35:00,49.8,11.5,29.94,East,86,2.0,4.0,21,0.00,,,-99.99,FreeWX-Wi 1.02,2014-01-12 13:35:00,
2014-01-12 05:40:00,50.2,11.8,29.94,East,86,2.0,4.0,21,0.00,,,-99.99,FreeWX-Wi 1.02,2014-01-12 13:40:00,
2014-01-12 05:45:00,50.5,12.0,29.94,East,85,2.0,3.1,21,0.00,,,-99.99,FreeWX-Wi 1.02,2014-01-12 13:45:00,
2014-01-12 05:50:00,50.0,11.7,29.97,East,85,1.0,3.6,21,0.00,,,-99.99,FreeWX-Wi 1.02,2014-01-12 13:50:00,
2014-01-12 05:55:00,49.3,10.9,29.97,East,84,2.0,4.0,21,0.00,,,-99.99,FreeWX-Wi 1.02,2014-01-12 13:55:00,
2014-01-12 06:00:00,49.1,10.9,29.97,East,84,2.0,4.0,21,0.00,,,-99.99,FreeWX-Wi 1.02,2014-01-12 14:00:00,
2014-01-12 06:05:00,48.9,10.8,29.97,East,84,2.0,4.0,21,0.00,,,-99.99,FreeWX-Wi 1.02,2014-01-12 14:05:00,
2014-01-12 06:10:00,48.7,10.6,29.97,East,83,2.0,2.7,21,0.00,,,-99.99,FreeWX-Wi 1.02,2014-01-12 14:10:00,
2014-01-12 06:15:00,48.6,10.4,29.97,East,83,2.0,3.1,21,0.00,,,-99.99,FreeWX-Wi 1.02,2014-01-12 14:15:00,
2014-01-12 06:20:00,48.4,10.2,29.97,East,83,2.0,3.6,21,0.00,,,-99.99,FreeWX-Wi 1.02,2014-01-12 14:20:00,
2014-01-12 06:25:00,48.0,10.9,29.97,East,83,2.0,4.0,22,0.00,,,-99.99,FreeWX-Wi 1.02,2014-01-12 14:25:00,
2014-01-12 06:30:00,47.8,10.9,29.97,East,83,2.0,3.6,22,0.00,,,-99.99,FreeWX-Wi 1.02,2014-01-12 14:30:00,
2014-01-12 06:35:00,47.7,10.8,29.97,East,83,2.0,3.6,22,0.00,,,-99.99,FreeWX-Wi 1.02,2014-01-12 14:35:00,
2014-01-12 06:40:00,47.5,10.6,29.97,East,83,2.0,3.1,22,0.00,,,-99.99,FreeWX-Wi 1.02,2014-01-12 14:40:00,
2014-01-12 06:45:00,47.7,10.8,29.97,East,83,2.0,4.0,22,0.00,,,-99.99,FreeWX-Wi 1.02,2014-01-12 14:45:00,
2014-01-12 06:50:00,48.2,10.0,30.00,East,83,2.0,4.0,21,0.00,,,-99.99,FreeWX-Wi 1.02,2014-01-12 14:50:00,
2014-01-12 06:55:00,48.6,10.4,30.00,East,82,2.0,4.9,21,0.00,,,-99.99,FreeWX-Wi 1.02,2014-01-12 14:55:00,
2014-01-12 07:00:00,48.6,10.4,30.00,East,81,1.0,3.1,21,0.00,,,-99.99,FreeWX-Wi 1.02,2014-01-12 15:00:00,
2014-01-12 07:05:00,48.9,10.8,30.00,East,81,1.0,3.6,21,0.00,,,-99.99,FreeWX-Wi 1.02,2014-01-12 15:05:00,
2014-01-12 07:10:00,49.1,10.9,30.00,East,80,1.0,4.9,21,0.00,,,-99.99,FreeWX-Wi 1.02,2014-01-12 15:10:00,
2014-01-12 07:15:00,49.5,11.1,30.00,East,79,2.0,4.0,21,0.00,,,-99.99,FreeWX-Wi 1.02,2014-01-12 15:15:00,
2014-01-12 07:21:00,49.3,10.9,30.00,East,79,2.0,3.6,21,0.00,,,-99.99,FreeWX-Wi 1.02,2014-01-12 15:21:00,
2014-01-12 07:26:00,49.3,10.9,30.00,East,79,2.0,4.0,21,0.00,,,-99.99,FreeWX-Wi 1.02,2014-01-12 15:26:00,
2014-01-12 07:31:00,49.8,11.5,30.00,East,79,2.0,3.6,21,0.00,,,-99.99,FreeWX-Wi 1.02,2014-01-12 15:31:00,
2014-01-12 07:36:00,50.2,11.8,30.00,East,79,2.0,3.6,21,0.00,,,-99.99,FreeWX-Wi 1.02,2014-01-12 15:36:00,
2014-01-12 07:41:00,50.7,12.2,30.00,East,79,2.0,3.6,21,0.00,,,-99.99,FreeWX-Wi 1.02,2014-01-12 15:41:00,
2014-01-12 07:46:00,52.0,13.3,30.00,East,79,2.0,3.1,21,0.00,,,-99.99,FreeWX-Wi 1.02,2014-01-12 15:46:00,
2014-01-12 07:51:00,53.1,14.2,30.03,East,79,2.0,4.0,21,0.00,,,-99.99,FreeWX-Wi 1.02,2014-01-12 15:51:00,
2014-01-12 07:56:00,55.2,14.9,30.03,ENE,77,1.0,6.3,20,0.00,,,-99.99,FreeWX-Wi 1.02,2014-01-12 15:56:00,
2014-01-12 08:01:00,56.3,15.8,30.03,ENE,78,1.0,2.2,20,0.00,,,-99.99,FreeWX-Wi 1.02,2014-01-12 16:01:00,
2014-01-12 08:06:00,56.3,15.8,30.03,North,-999,0.0,0.0,20,0.00,,,-99.99,FreeWX-Wi 1.02,2014-01-12 16:06:00,
2014-01-12 08:11:00,55.9,15.4,30.03,North,-999,0.0,0.0,20,0.00,,,-99.99,FreeWX-Wi 1.02,2014-01-12 16:11:00,
2014-01-12 08:16:00,56.1,15.6,30.03,North,-999,0.0,0.0,20,0.00,,,-99.99,FreeWX-Wi 1.02,2014-01-12 16:16:00,
2014-01-12 08:21:00,56.5,16.0,30.03,North,-999,0.0,0.0,20,0.00,,,-99.99,FreeWX-Wi 1.02,2014-01-12 16:21:00,
2014-01-12 08:26:00,56.8,16.2,30.03,North,-999,0.0,0.0,20,0.00,,,-99.99,FreeWX-Wi 1.02,2014-01-12 16:26:00,
2014-01-12 08:31:00,57.2,15.3,30.03,North,-999,0.0,0.0,19,0.00,,,-99.99,FreeWX-Wi 1.02,2014-01-12 16:31:00,
2014-01-12 08:36:00,57.4,15.4,30.06,North,-999,0.0,3.6,19,0.00,,,-99.99,FreeWX-Wi 1.02,2014-01-12 16:36:00,
2014-01-12 08:41:00,58.1,16.2,30.06,North,-999,0.0,2.7,19,0.00,,,-99.99,FreeWX-Wi 1.02,2014-01-12 16:41:00,
2014-01-12 08:46:00,58.8,16.7,30.06,North,-999,0.0,2.2,19,0.00,,,-99.99,FreeWX-Wi 1.02,2014-01-12 16:46:00,
2014-01-12 08:51:00,59.7,17.4,30.06,North,-999,0.0,2.7,19,0.00,,,-99.99,FreeWX-Wi 1.02,2014-01-12 16:51:00,
2014-01-12 08:56:00,60.4,18.0,30.06,SSW,206,1.0,3.6,19,0.00,,,-99.99,FreeWX-Wi 1.02,2014-01-12 16:56:00,
2014-01-12 09:01:00,61.0,18.5,30.06,SSW,197,1.0,2.7,19,0.00,,,-99.99,FreeWX-Wi 1.02,2014-01-12 17:01:00,
2014-01-12 09:06:00,61.3,18.7,30.03,North,-999,0.0,0.0,19,0.00,,,-99.99,FreeWX-Wi 1.02,2014-01-12 17:06:00,
2014-01-12 09:11:00,61.7,19.0,30.03,North,-999,0.0,2.7,19,0.00,,,-99.99,FreeWX-Wi 1.02,2014-01-12 17:11:00,
2014-01-12 09:16:00,62.4,19.6,30.03,North,-999,0.0,3.1,19,0.00,,,-99.99,FreeWX-Wi 1.02,2014-01-12 17:16:00,
2014-01-12 09:21:00,63.5,19.2,30.06,North,-999,0.0,0.0,18,0.00,,,-99.99,FreeWX-Wi 1.02,2014-01-12 17:21:00,
2014-01-12 09:26:00,63.7,19.4,30.06,North,-999,0.0,3.1,18,0.00,,,-99.99,FreeWX-Wi 1.02,2014-01-12 17:26:00,
2014-01-12 09:31:00,64.2,19.8,30.06,North,-999,0.0,0.0,18,0.00,,,-99.99,FreeWX-Wi 1.02,2014-01-12 17:31:00,
2014-01-12 09:36:00,65.5,20.8,30.06,North,-999,0.0,0.0,18,0.00,,,-99.99,FreeWX-Wi 1.02,2014-01-12 17:36:00,
2014-01-12 09:41:00,66.2,20.1,30.06,North,-999,0.0,2.7,17,0.00,,,-99.99,FreeWX-Wi 1.02,2014-01-12 17:41:00,
2014-01-12 09:46:00,66.7,20.5,30.06,North,-999,0.0,2.7,17,0.00,,,-99.99,FreeWX-Wi 1.02,2014-01-12 17:46:00,
2014-01-12 09:51:00,66.9,20.7,30.09,North,-999,0.0,5.4,17,0.00,,,-99.99,FreeWX-Wi 1.02,2014-01-12 17:51:00,
2014-01-12 09:56:00,67.1,20.8,30.09,SSW,206,1.0,6.3,17,0.00,,,-99.99,FreeWX-Wi 1.02,2014-01-12 17:56:00,
2014-01-12 10:01:00,67.6,21.2,30.09,SW,215,2.0,6.7,17,0.00,,,-99.99,FreeWX-Wi 1.02,2014-01-12 18:01:00,
2014-01-12 10:06:00,67.8,21.4,30.09,SW,225,3.0,8.7,17,0.00,,,-99.99,FreeWX-Wi 1.02,2014-01-12 18:06:00,
2014-01-12 10:11:00,68.2,21.7,30.09,SW,234,4.0,5.8,17,0.00,,,-99.99,FreeWX-Wi 1.02,2014-01-12 18:11:00,
2014-01-12 10:16:00,68.5,21.9,30.09,WSW,242,4.0,4.0,17,0.00,,,-99.99,FreeWX-Wi 1.02,2014-01-12 18:16:00,
2014-01-12 10:21:00,69.1,22.5,30.06,WSW,241,3.0,3.0,17,0.00,,,-99.99,FreeWX-Wi 1.02,2014-01-12 18:21:00,
2014-01-12 10:26:00,70.0,23.2,30.06,WSW,243,2.0,4.5,17,0.00,,,-99.99,FreeWX-Wi 1.02,2014-01-12 18:26:00,
2014-01-12 10:31:00,70.9,23.9,30.06,WSW,253,2.0,4.0,17,0.00,,,-99.99,FreeWX-Wi 1.02,2014-01-12 18:31:00,
2014-01-12 10:36:00,71.6,23.0,30.06,West,271,2.0,8.7,16,0.00,,,-99.99,FreeWX-Wi 1.02,2014-01-12 18:36:00,
2014-01-12 10:41:00,72.1,23.5,30.06,WNW,299,2.0,8.7,16,0.00,,,-99.99,FreeWX-Wi 1.02,2014-01-12 18:41:00,
2014-01-12 10:46:00,72.3,23.5,30.06,NNW,330,3.0,10.1,16,0.00,,,-99.99,FreeWX-Wi 1.02,2014-01-12 18:46:00,
2014-01-12 10:51:00,72.1,23.5,30.09,North,349,4.0,8.7,16,0.00,,,-99.99,FreeWX-Wi 1.02,2014-01-12 18:51:00,
2014-01-12 10:56:00,71.6,23.0,30.09,North,2,5.0,10.1,16,0.00,,,-99.99,FreeWX-Wi 1.02,2014-01-12 18:56:00,
2014-01-12 11:01:00,71.4,24.3,30.09,North,5,6.0,11.0,17,0.00,,,-99.99,FreeWX-Wi 1.02,2014-01-12 19:01:00,
2014-01-12 11:06:00,71.4,24.3,30.06,North,5,6.0,12.8,17,0.00,,,-99.99,FreeWX-Wi 1.02,2014-01-12 19:06:00,
2014-01-12 11:11:00,71.2,24.3,30.06,North,9,7.0,11.9,17,0.00,,,-99.99,FreeWX-Wi 1.02,2014-01-12 19:11:00,
2014-01-12 11:16:00,71.6,23.0,30.06,NNE,12,7.0,9.2,16,0.00,,,-99.99,FreeWX-Wi 1.02,2014-01-12 19:16:00,
2014-01-12 11:21:00,72.1,23.5,30.06,NNE,19,7.0,10.1,16,0.00,,,-99.99,FreeWX-Wi 1.02,2014-01-12 19:21:00,
2014-01-12 11:26:00,72.3,23.5,30.06,NNE,23,7.0,12.3,16,0.00,,,-99.99,FreeWX-Wi 1.02,2014-01-12 19:26:00,
2014-01-12 11:31:00,72.7,23.9,30.06,NNE,23,7.0,10.1,16,0.00,,,-99.99,FreeWX-Wi 1.02,2014-01-12 19:31:00,
2014-01-12 11:36:00,73.4,24.4,30.06,NNE,26,7.0,10.1,16,0.00,,,-99.99,FreeWX-Wi 1.02,2014-01-12 19:36:00,
2014-01-12 11:41:00,73.9,25.0,30.06,NNE,28,6.0,10.1,16,0.00,,,-99.99,FreeWX-Wi 1.02,2014-01-12 19:41:00,
2014-01-12 11:46:00,73.6,24.6,30.06,NNE,31,7.0,11.0,16,0.00,,,-99.99,FreeWX-Wi 1.02,2014-01-12 19:46:00,
2014-01-12 11:51:00,73.4,24.4,30.06,NNE,29,7.0,11.4,16,0.00,,,-99.99,FreeWX-Wi 1.02,2014-01-12 19:51:00,
2014-01-12 11:56:00,73.9,25.0,30.06,NNE,30,7.0,10.1,16,0.00,,,-99.99,FreeWX-Wi 1.02,2014-01-12 19:56:00,
2014-01-12 12:01:00,74.8,25.7,30.06,NNE,32,7.0,12.8,16,0.00,,,-99.99,FreeWX-Wi 1.02,2014-01-12 20:01:00,
2014-01-12 12:06:00,74.7,25.5,30.06,NNE,32,7.0,12.3,16,0.00,,,-99.99,FreeWX-Wi 1.02,2014-01-12 20:06:00,
2014-01-12 12:11:00,73.4,24.4,30.06,NNE,29,8.0,13.2,16,0.00,,,-99.99,FreeWX-Wi 1.02,2014-01-12 20:11:00,
2014-01-12 12:16:00,73.4,24.4,30.06,NNE,28,8.0,11.4,16,0.00,,,-99.99,FreeWX-Wi 1.02,2014-01-12 20:16:00,
2014-01-12 12:21:00,73.6,24.6,30.06,NNE,29,8.0,10.5,16,0.00,,,-99.99,FreeWX-Wi 1.02,2014-01-12 20:21:00,
2014-01-12 12:26:00,73.9,25.0,30.06,NNE,28,8.0,11.9,16,0.00,,,-99.99,FreeWX-Wi 1.02,2014-01-12 20:26:00,
2014-01-12 12:31:00,73.6,24.6,30.06,NNE,26,8.0,12.8,16,0.00,,,-99.99,FreeWX-Wi 1.02,2014-01-12 20:31:00,
2014-01-12 12:36:00,72.7,23.9,30.06,NNE,24,8.0,12.8,16,0.00,,,-99.99,FreeWX-Wi 1.02,2014-01-12 20:36:00,
2014-01-12 12:41:00,72.5,23.7,30.06,NNE,25,8.0,12.8,16,0.00,,,-99.99,FreeWX-Wi 1.02,2014-01-12 20:41:00,
2014-01-12 12:46:00,72.1,23.5,30.06,NNE,20,8.0,12.8,16,0.00,,,-99.99,FreeWX-Wi 1.02,2014-01-12 20:46:00,
2014-01-12 12:51:00,72.0,23.4,30.06,NNE,20,9.0,18.3,16,0.00,,,-99.99,FreeWX-Wi 1.02,2014-01-12 20:51:00,
2014-01-12 12:56:00,71.6,23.0,30.06,NNE,18,9.0,17.4,16,0.00,,,-99.99,FreeWX-Wi 1.02,2014-01-12 20:56:00,
2014-01-12 13:01:00,71.6,23.0,30.06,NNE,18,10.0,15.4,16,0.00,,,-99.99,FreeWX-Wi 1.02,2014-01-12 21:01:00,
2014-01-12 13:06:00,71.6,23.0,30.06,NNE,20,10.0,15.0,16,0.00,,,-99.99,FreeWX-Wi 1.02,2014-01-12 21:06:00,
2014-01-12 13:11:00,71.4,24.3,30.06,NNE,23,10.0,15.4,17,0.00,,,-99.99,FreeWX-Wi 1.02,2014-01-12 21:11:00,
2014-01-12 13:16:00,71.2,24.3,30.06,NNE,25,10.0,15.4,17,0.00,,,-99.99,FreeWX-Wi 1.02,2014-01-12 21:16:00,
2014-01-12 13:21:00,71.1,24.1,30.09,NNE,26,10.0,17.4,17,0.00,,,-99.99,FreeWX-Wi 1.02,2014-01-12 21:21:00,
2014-01-12 13:26:00,71.1,24.1,30.09,NNE,27,10.0,16.8,17,0.00,,,-99.99,FreeWX-Wi 1.02,2014-01-12 21:26:00,
2014-01-12 13:31:00,70.7,23.7,30.09,NNE,28,10.0,18.3,17,0.00,,,-99.99,FreeWX-Wi 1.02,2014-01-12 21:31:00,
2014-01-12 13:36:00,70.3,23.5,30.09,NNE,25,10.0,15.0,17,0.00,,,-99.99,FreeWX-Wi 1.02,2014-01-12 21:36:00,
2014-01-12 13:41:00,70.2,23.4,30.09,NNE,24,11.0,19.2,17,0.00,,,-99.99,FreeWX-Wi 1.02,2014-01-12 21:41:00,
2014-01-12 13:46:00,69.6,22.8,30.09,NNE,23,11.0,15.4,17,0.00,,,-99.99,FreeWX-Wi 1.02,2014-01-12 21:46:00,
2014-01-12 13:51:00,69.8,23.0,30.09,NNE,24,11.0,21.0,17,0.00,,,-99.99,FreeWX-Wi 1.02,2014-01-12 21:51:00,
2014-01-12 13:56:00,70.0,23.2,30.09,NNE,20,11.0,17.4,17,0.00,,,-99.99,FreeWX-Wi 1.02,2014-01-12 21:56:00,
2014-01-12 14:01:00,70.3,23.5,30.09,NNE,20,11.0,17.4,17,0.00,,,-99.99,FreeWX-Wi 1.02,2014-01-12 22:01:00,
2014-01-12 14:06:00,70.0,23.2,30.09,NNE,22,11.0,17.4,17,0.00,,,-99.99,FreeWX-Wi 1.02,2014-01-12 22:06:00,
2014-01-12 14:11:00,70.2,23.4,30.09,NNE,24,10.0,12.3,17,0.00,,,-99.99,FreeWX-Wi 1.02,2014-01-12 22:11:00,
2014-01-12 14:16:00,70.2,23.4,30.09,NNE,22,10.0,15.0,17,0.00,,,-99.99,FreeWX-Wi 1.02,2014-01-12 22:16:00,
2014-01-12 14:21:00,70.2,23.4,30.09,NNE,22,9.0,13.6,17,0.00,,,-99.99,FreeWX-Wi 1.02,2014-01-12 22:21:00,
2014-01-12 14:26:00,70.2,23.4,30.09,NNE,24,9.0,13.6,17,0.00,,,-99.99,FreeWX-Wi 1.02,2014-01-12 22:26:00,
2014-01-12 14:31:00,70.2,23.4,30.09,NNE,24,9.0,14.5,17,0.00,,,-99.99,FreeWX-Wi 1.02,2014-01-12 22:31:00,
2014-01-12 14:36:00,70.2,23.4,30.09,NNE,24,9.0,14.5,17,0.00,,,-99.99,FreeWX-Wi 1.02,2014-01-12 22:36:00,
2014-01-12 14:41:00,70.2,23.4,30.09,NNE,24,9.0,13.2,17,0.00,,,-99.99,FreeWX-Wi 1.02,2014-01-12 22:41:00,
2014-01-12 14:46:00,70.0,23.2,30.09,NNE,24,9.0,13.2,17,0.00,,,-99.99,FreeWX-Wi 1.02,2014-01-12 22:46:00,
2014-01-12 14:51:00,70.0,23.2,30.09,NNE,24,8.0,13.2,17,0.00,,,-99.99,FreeWX-Wi 1.02,2014-01-12 22:51:00,
2014-01-12 14:56:00,69.8,23.0,30.09,NNE,23,8.0,12.3,17,0.00,,,-99.99,FreeWX-Wi 1.02,2014-01-12 22:56:00,
2014-01-12 15:01:00,69.8,23.0,30.09,NNE,20,8.0,10.1,17,0.00,,,-99.99,FreeWX-Wi 1.02,2014-01-12 23:01:00,
2014-01-12 15:06:00,69.8,23.0,30.09,NNE,19,8.0,9.6,17,0.00,,,-99.99,FreeWX-Wi 1.02,2014-01-12 23:06:00,
2014-01-12 15:11:00,69.8,23.0,30.09,NNE,17,7.0,10.5,17,0.00,,,-99.99,FreeWX-Wi 1.02,2014-01-12 23:11:00,
2014-01-12 15:16:00,70.0,23.2,30.09,NNE,17,7.0,10.5,17,0.00,,,-99.99,FreeWX-Wi 1.02,2014-01-12 23:16:00,
2014-01-12 15:21:00,70.2,23.4,30.09,NNE,16,7.0,12.8,17,0.00,,,-99.99,FreeWX-Wi 1.02,2014-01-12 23:21:00,
2014-01-12 15:26:00,70.2,23.4,30.09,NNE,15,7.0,10.5,17,0.00,,,-99.99,FreeWX-Wi 1.02,2014-01-12 23:26:00,
2014-01-12 15:31:00,70.0,23.2,30.09,NNE,16,7.0,9.6,17,0.00,,,-99.99,FreeWX-Wi 1.02,2014-01-12 23:31:00,
2014-01-12 15:36:00,69.8,23.0,30.09,NNE,16,7.0,8.7,17,0.00,,,-99.99,FreeWX-Wi 1.02,2014-01-12 23:36:00,
2014-01-12 15:41:00,69.6,22.8,30.09,NNE,18,6.0,10.1,17,0.00,,,-99.99,FreeWX-Wi 1.02,2014-01-12 23:41:00,
2014-01-12 15:46:00,69.3,22.6,30.09,NNE,19,6.0,8.3,17,0.00,,,-99.99,FreeWX-Wi 1.02,2014-01-12 23:46:00,
2014-01-12 15:51:00,69.1,22.5,30.09,NNE,21,6.0,8.1,17,0.00,,,-99.99,FreeWX-Wi 1.02,2014-01-12 23:51:00,
2014-01-12 15:56:00,68.9,22.3,30.09,NNE,23,6.0,10.5,17,0.00,,,-99.99,FreeWX-Wi 1.02,2014-01-12 23:56:00,
2014-01-12 16:01:00,68.9,22.3,30.09,NNE,22,6.0,11.0,17,0.00,,,-99.99,FreeWX-Wi 1.02,2014-01-13 00:01:00,
2014-01-12 16:06:00,68.5,21.9,30.12,NNE,21,6.0,10.5,17,0.00,,,-99.99,FreeWX-Wi 1.02,2014-01-13 00:06:00,
2014-01-12 16:11:00,68.4,21.9,30.12,NNE,20,7.0,10.5,17,0.00,,,-99.99,FreeWX-Wi 1.02,2014-01-13 00:11:00,
2014-01-12 16:16:00,68.2,21.7,30.12,NNE,18,7.0,10.5,17,0.00,,,-99.99,FreeWX-Wi 1.02,2014-01-13 00:16:00,
2014-01-12 16:21:00,67.8,21.4,30.12,NNE,14,7.0,7.0,17,0.00,,,-99.99,FreeWX-Wi 1.02,2014-01-13 00:21:00,
2014-01-12 16:26:00,67.5,21.2,30.12,NNE,14,6.0,6.3,17,0.00,,,-99.99,FreeWX-Wi 1.02,2014-01-13 00:26:00,
2014-01-12 16:31:00,67.1,20.8,30.12,NNE,14,5.0,5.4,17,0.00,,,-99.99,FreeWX-Wi 1.02,2014-01-13 00:31:00,
2014-01-12 16:36:00,66.7,20.5,30.12,NNE,15,4.0,6.3,17,0.00,,,-99.99,FreeWX-Wi 1.02,2014-01-13 00:36:00,
2014-01-12 16:41:00,66.4,20.3,30.12,NNE,17,4.0,6.7,17,0.00,,,-99.99,FreeWX-Wi 1.02,2014-01-13 00:41:00,
2014-01-12 16:46:00,66.0,21.4,30.12,NNE,23,4.0,7.6,18,0.00,,,-99.99,FreeWX-Wi 1.02,2014-01-13 00:46:00,
2014-01-12 16:51:00,66.0,21.4,30.12,NNE,27,4.0,7.6,18,0.00,,,-99.99,FreeWX-Wi 1.02,2014-01-13 00:51:00,
2014-01-12 16:56:00,65.7,21.0,30.12,NNE,32,4.0,8.1,18,0.00,,,-99.99,FreeWX-Wi 1.02,2014-01-13 00:56:00,
2014-01-12 17:01:00,65.5,20.8,30.12,NE,36,4.0,8.3,18,0.00,,,-99.99,FreeWX-Wi 1.02,2014-01-13 01:01:00,
2014-01-12 17:06:00,65.1,20.5,30.15,NE,39,4.0,5.8,18,0.00,,,-99.99,FreeWX-Wi 1.02,2014-01-13 01:06:00,
2014-01-12 17:11:00,64.8,20.3,30.15,NE,40,4.0,7.6,18,0.00,,,-99.99,FreeWX-Wi 1.02,2014-01-13 01:11:00,
2014-01-12 17:16:00,64.8,20.3,30.15,NE,39,4.0,8.1,18,0.00,,,-99.99,FreeWX-Wi 1.02,2014-01-13 01:16:00,
2014-01-12 17:21:00,64.4,19.9,30.15,NE,39,4.0,6.7,18,0.00,,,-99.99,FreeWX-Wi 1.02,2014-01-13 01:21:00,
2014-01-12 17:26:00,64.0,19.8,30.15,NE,38,3.0,4.0,18,0.00,,,-99.99,FreeWX-Wi 1.02,2014-01-13 01:26:00,
2014-01-12 17:31:00,63.5,19.2,30.15,NE,37,2.0,0.0,18,0.00,,,-99.99,FreeWX-Wi 1.02,2014-01-13 01:31:00,
2014-01-12 17:36:00,62.8,18.7,30.15,NE,36,2.0,4.0,18,0.00,,,-99.99,FreeWX-Wi 1.02,2014-01-13 01:36:00,
2014-01-12 17:41:00,62.4,19.6,30.15,NE,36,1.0,5.4,19,0.00,,,-99.99,FreeWX-Wi 1.02,2014-01-13 01:41:00,
2014-01-12 17:46:00,63.7,19.4,30.15,NE,35,2.0,7.6,18,0.00,,,-99.99,FreeWX-Wi 1.02,2014-01-13 01:46:00,
2014-01-12 17:51:00,63.5,19.2,30.15,NE,41,2.0,4.0,18,0.00,,,-99.99,FreeWX-Wi 1.02,2014-01-13 01:51:00,
2014-01-12 17:56:00,62.8,18.7,30.15,NE,49,2.0,5.4,18,0.00,,,-99.99,FreeWX-Wi 1.02,2014-01-13 01:56:00,
2014-01-12 18:01:00,62.4,19.6,30.15,NE,55,2.0,4.0,19,0.00,,,-99.99,FreeWX-Wi 1.02,2014-01-13 02:01:00,
2014-01-12 18:06:00,62.6,18.5,30.18,NE,55,3.0,6.3,18,0.00,,,-99.99,FreeWX-Wi 1.02,2014-01-13 02:06:00,
2014-01-12 18:11:00,63.3,19.0,30.18,NE,55,3.0,8.3,18,0.00,,,-99.99,FreeWX-Wi 1.02,2014-01-13 02:11:00,
2014-01-12 18:16:00,63.5,19.2,30.18,NE,53,3.0,7.6,18,0.00,,,-99.99,FreeWX-Wi 1.02,2014-01-13 02:16:00,
2014-01-12 18:21:00,62.4,19.6,30.18,NE,44,2.0,3.1,19,0.00,,,-99.99,FreeWX-Wi 1.02,2014-01-13 02:21:00,
2014-01-12 18:26:00,62.4,19.6,30.18,NE,37,2.0,4.0,19,0.00,,,-99.99,FreeWX-Wi 1.02,2014-01-13 02:26:00,
2014-01-12 18:31:00,61.7,19.0,30.18,NNE,31,2.0,3.1,19,0.00,,,-99.99,FreeWX-Wi 1.02,2014-01-13 02:31:00,
2014-01-12 18:36:00,60.8,18.3,30.18,NE,34,1.0,2.7,19,0.00,,,-99.99,FreeWX-Wi 1.02,2014-01-13 02:36:00,
2014-01-12 18:41:00,60.1,17.8,30.18,NNE,32,1.0,3.6,19,0.00,,,-99.99,FreeWX-Wi 1.02,2014-01-13 02:41:00,
2014-01-12 18:46:00,60.4,18.0,30.18,NNE,30,1.0,4.0,19,0.00,,,-99.99,FreeWX-Wi 1.02,2014-01-13 02:46:00,
2014-01-12 18:51:00,63.5,19.2,30.18,NNE,23,1.0,8.1,18,0.00,,,-99.99,FreeWX-Wi 1.02,2014-01-13 02:51:00,
2014-01-12 18:56:00,63.1,19.0,30.18,NNE,19,2.0,5.8,18,0.00,,,-99.99,FreeWX-Wi 1.02,2014-01-13 02:56:00,
2014-01-12 19:01:00,63.7,19.4,30.18,NNE,14,2.0,8.3,18,0.00,,,-99.99,FreeWX-Wi 1.02,2014-01-13 03:01:00,
2014-01-12 19:06:00,63.5,19.2,30.18,NNE,12,3.0,8.1,18,0.00,,,-99.99,FreeWX-Wi 1.02,2014-01-13 03:06:00,
2014-01-12 19:11:00,63.9,19.6,30.18,North,7,4.0,7.2,18,0.00,,,-99.99,FreeWX-Wi 1.02,2014-01-13 03:11:00,
2014-01-12 19:16:00,63.5,19.2,30.18,North,8,4.0,6.3,18,0.00,,,-99.99,FreeWX-Wi 1.02,2014-01-13 03:16:00,
2014-01-12 19:21:00,62.8,18.7,30.18,North,5,4.0,5.8,18,0.00,,,-99.99,FreeWX-Wi 1.02,2014-01-13 03:21:00,
2014-01-12 19:26:00,61.5,18.9,30.18,North,4,4.0,4.0,19,0.00,,,-99.99,FreeWX-Wi 1.02,2014-01-13 03:26:00,
2014-01-12 19:31:00,60.8,18.3,30.18,North,1,3.0,5.4,19,0.00,,,-99.99,FreeWX-Wi 1.02,2014-01-13 03:31:00,
2014-01-12 19:36:00,62.1,19.4,30.18,North,6,3.0,7.6,19,0.00,,,-99.99,FreeWX-Wi 1.02,2014-01-13 03:36:00,
2014-01-12 19:41:00,63.1,19.0,30.18,North,2,3.0,8.3,18,0.00,,,-99.99,FreeWX-Wi 1.02,2014-01-13 03:41:00,
2014-01-12 19:46:00,61.9,19.2,30.18,North,1,2.0,4.0,19,0.00,,,-99.99,FreeWX-Wi 1.02,2014-01-13 03:46:00,
2014-01-12 19:51:00,60.8,18.3,30.18,North,359,2.0,3.6,19,0.00,,,-99.99,FreeWX-Wi 1.02,2014-01-13 03:51:00,
2014-01-12 19:56:00,59.5,17.2,30.18,North,0,2.0,2.7,19,0.00,,,-99.99,FreeWX-Wi 1.02,2014-01-13 03:56:00,
2014-01-12 20:01:00,58.6,16.5,30.18,North,355,1.0,3.1,19,0.00,,,-99.99,FreeWX-Wi 1.02,2014-01-13 04:01:00,
2014-01-12 20:06:00,58.6,16.5,30.18,North,355,1.0,6.3,19,0.00,,,-99.99,FreeWX-Wi 1.02,2014-01-13 04:06:00,
2014-01-12 20:11:00,58.5,16.3,30.18,North,5,1.0,0.0,19,0.00,,,-99.99,FreeWX-Wi 1.02,2014-01-13 04:11:00,
2014-01-12 20:16:00,57.9,16.0,30.18,North,-999,0.0,0.0,19,0.00,,,-99.99,FreeWX-Wi 1.02,2014-01-13 04:16:00,
2014-01-12 20:21:00,58.1,16.2,30.21,North,-999,0.0,3.6,19,0.00,,,-99.99,FreeWX-Wi 1.02,2014-01-13 04:21:00,
2014-01-12 20:26:00,56.8,16.2,30.21,NNE,32,1.0,4.0,20,0.00,,,-99.99,FreeWX-Wi 1.02,2014-01-13 04:26:00,
2014-01-12 20:31:00,56.5,16.0,30.21,North,-999,0.0,3.1,20,0.00,,,-99.99,FreeWX-Wi 1.02,2014-01-13 04:31:00,
2014-01-12 20:36:00,56.8,16.2,30.21,North,-999,0.0,4.0,20,0.00,,,-99.99,FreeWX-Wi 1.02,2014-01-13 04:36:00,
2014-01-12 20:41:00,57.4,15.4,30.21,NE,41,1.0,2.2,19,0.00,,,-99.99,FreeWX-Wi 1.02,2014-01-13 04:41:00,
2014-01-12 20:46:00,56.5,16.0,30.21,North,-999,0.0,0.0,20,0.00,,,-99.99,FreeWX-Wi 1.02,2014-01-13 04:46:00,
2014-01-12 20:51:00,56.1,15.6,30.21,North,-999,0.0,0.0,20,0.00,,,-99.99,FreeWX-Wi 1.02,2014-01-13 04:51:00,
2014-01-12 20:56:00,56.3,15.8,30.21,North,-999,0.0,4.0,20,0.00,,,-99.99,FreeWX-Wi 1.02,2014-01-13 04:56:00,
2014-01-12 21:01:00,57.0,16.3,30.21,NE,41,1.0,7.6,20,0.00,,,-99.99,FreeWX-Wi 1.02,2014-01-13 05:01:00,
2014-01-12 21:06:00,57.9,16.0,30.21,NE,39,1.0,3.6,19,0.00,,,-99.99,FreeWX-Wi 1.02,2014-01-13 05:06:00,
2014-01-12 21:11:00,58.6,16.5,30.21,NNE,33,1.0,5.8,19,0.00,,,-99.99,FreeWX-Wi 1.02,2014-01-13 05:11:00,
2014-01-12 21:16:00,58.6,16.5,30.21,NNE,25,1.0,4.0,19,0.00,,,-99.99,FreeWX-Wi 1.02,2014-01-13 05:16:00,
2014-01-12 21:21:00,57.7,15.8,30.21,NNE,17,2.0,2.7,19,0.00,,,-99.99,FreeWX-Wi 1.02,2014-01-13 05:21:00,
2014-01-12 21:26:00,58.1,16.2,30.21,North,8,2.0,5.4,19,0.00,,,-99.99,FreeWX-Wi 1.02,2014-01-13 05:26:00,
2014-01-12 21:31:00,59.4,17.1,30.21,NNW,348,1.0,3.1,19,0.00,,,-99.99,FreeWX-Wi 1.02,2014-01-13 05:31:00,
2014-01-12 21:36:00,59.2,16.9,30.21,NNW,338,1.0,4.9,19,0.00,,,-99.99,FreeWX-Wi 1.02,2014-01-13 05:36:00,
2014-01-12 21:41:00,57.2,15.3,30.21,NNW,338,1.0,2.2,19,0.00,,,-99.99,FreeWX-Wi 1.02,2014-01-13 05:41:00,
2014-01-12 21:46:00,55.4,15.1,30.21,North,-999,0.0,0.0,20,0.00,,,-99.99,FreeWX-Wi 1.02,2014-01-13 05:46:00,
2014-01-12 21:51:00,54.3,14.2,30.21,North,-999,0.0,2.2,20,0.00,,,-99.99,FreeWX-Wi 1.02,2014-01-13 05:51:00,
2014-01-12 21:56:00,54.7,14.4,30.21,North,-999,0.0,0.0,20,0.00,,,-99.99,FreeWX-Wi 1.02,2014-01-13 05:56:00,
2014-01-12 22:01:00,54.7,14.4,30.21,North,-999,0.0,4.0,20,0.00,,,-99.99,FreeWX-Wi 1.02,2014-01-13 06:01:00,
2014-01-12 22:06:00,54.7,14.4,30.24,North,-999,0.0,4.0,20,0.00,,,-99.99,FreeWX-Wi 1.02,2014-01-13 06:06:00,
2014-01-12 22:11:00,54.5,14.2,30.24,North,-999,0.0,3.6,20,0.00,,,-99.99,FreeWX-Wi 1.02,2014-01-13 06:11:00,
2014-01-12 22:16:00,54.5,14.2,30.24,North,357,1.0,3.1,20,0.00,,,-99.99,FreeWX-Wi 1.02,2014-01-13 06:16:00,
2014-01-12 22:21:00,57.0,16.3,30.24,North,359,1.0,5.8,20,0.00,,,-99.99,FreeWX-Wi 1.02,2014-01-13 06:21:00,
2014-01-12 22:26:00,56.8,16.2,30.24,North,2,2.0,5.8,20,0.00,,,-99.99,FreeWX-Wi 1.02,2014-01-13 06:26:00,
2014-01-12 22:31:00,56.7,16.0,30.24,North,5,2.0,4.0,20,0.00,,,-99.99,FreeWX-Wi 1.02,2014-01-13 06:31:00,
2014-01-12 22:36:00,55.9,15.4,30.24,North,9,2.0,3.6,20,0.00,,,-99.99,FreeWX-Wi 1.02,2014-01-13 06:36:00,
2014-01-12 22:41:00,55.2,14.9,30.24,NNE,12,1.0,3.1,20,0.00,,,-99.99,FreeWX-Wi 1.02,2014-01-13 06:41:00,
2014-01-12 22:46:00,53.8,13.6,30.24,NNE,15,1.0,0.0,20,0.00,,,-99.99,FreeWX-Wi 1.02,2014-01-13 06:46:00,
2014-01-12 22:51:00,52.5,13.8,30.24,North,-999,0.0,4.0,21,0.00,,,-99.99,FreeWX-Wi 1.02,2014-01-13 06:51:00,
2014-01-12 22:56:00,51.4,12.7,30.24,North,-999,0.0,4.0,21,0.00,,,-99.99,FreeWX-Wi 1.02,2014-01-13 06:56:00,
2014-01-12 23:01:00,52.0,13.3,30.24,NNE,16,1.0,3.6,21,0.00,,,-99.99,FreeWX-Wi 1.02,2014-01-13 07:01:00,
2014-01-12 23:06:00,51.8,13.1,30.24,NNE,16,1.0,2.7,21,0.00,,,-99.99,FreeWX-Wi 1.02,2014-01-13 07:06:00,
2014-01-12 23:11:00,52.2,13.5,30.24,NNE,17,1.0,5.8,21,0.00,,,-99.99,FreeWX-Wi 1.02,2014-01-13 07:11:00,
2014-01-12 23:16:00,54.5,14.2,30.24,NNE,16,2.0,4.0,20,0.00,,,-99.99,FreeWX-Wi 1.02,2014-01-13 07:16:00,
2014-01-12 23:21:00,55.6,15.1,30.24,NNE,14,2.0,4.9,20,0.00,,,-99.99,FreeWX-Wi 1.02,2014-01-13 07:21:00,
2014-01-12 23:26:00,57.2,15.3,30.24,North,11,2.0,7.2,19,0.00,,,-99.99,FreeWX-Wi 1.02,2014-01-13 07:26:00,
2014-01-12 23:31:00,57.7,15.8,30.24,North,10,3.0,5.8,19,0.00,,,-99.99,FreeWX-Wi 1.02,2014-01-13 07:31:00,
2014-01-12 23:36:00,59.2,16.9,30.24,North,9,3.0,8.3,19,0.00,,,-99.99,FreeWX-Wi 1.02,2014-01-13 07:36:00,
2014-01-12 23:41:00,59.2,16.9,30.24,North,10,3.0,5.8,19,0.00,,,-99.99,FreeWX-Wi 1.02,2014-01-13 07:41:00,
2014-01-12 23:46:00,59.0,16.9,30.24,NNE,13,4.0,7.6,19,0.00,,,-99.99,FreeWX-Wi 1.02,2014-01-13 07:46:00,
2014-01-12 23:51:00,59.0,16.9,30.24,NNE,12,4.0,5.8,19,0.00,,,-99.99,FreeWX-Wi 1.02,2014-01-13 07:51:00,
2014-01-12 23:56:00,58.1,16.2,30.24,NNE,14,4.0,6.3,19,0.00,,,-99.99,FreeWX-Wi 1.02,2014-01-13 07:56:00,